User: anonymous   Login
Location: Colonia Mina de C?rbuni
(46.1667°N, 22.7167°E)
Time: 16:51:03
(UTC+00:00)
Language:

SL-16 R/B - Orbit

View from above orbital plane
View from above orbital plane
View from above satellite
View from above satellite

Ground track
Ground track

The orbit data is extracted from the following two-line orbital elements,

1 31793U 07029B   23149.71334177  .00000082  00000-0  67719-4 0  9997
2 31793  70.9726 145.4166 0001670 264.4866 268.5186 14.14531592821825
Epoch (UTC): 29 May 2023 17:07:12
Eccentricity: 0.0001670
inclination: 70.9726°
perigee height: 843 km
apogee height: 845 km
right ascension of ascending node: 145.4166°
argument of perigee: 264.4866°
revolutions per day: 14.14531592
mean anomaly at epoch: 268.5186°
orbit number at epoch: 82182

The dashed part of the orbit path shows where the satellite is in the earth's shadow,  

DLR